Location: Boissi�res
(45.2500°N, 2.3667°E)
Time: 19:40:52
(UTC+00:00)

HJ-1C - Pass Details

Date: 03 March 2021
Orbit: 428 x 440 km, 97.1° (Epoch: 17 April)

Event Time Altitude Azimuth Distance (km) Brightness Sun altitude
Rises 18:31:00 0° 158° (SSE) 2,415 6.9 -9.7°
Reaches altitude 10° 18:33:02 10° 154° (SSE) 1,549 5.9 -10.0°
Maximum altitude 18:36:17 57° 75° (ENE) 524 3.4 -10.6°
Drops below altitude 10° 18:39:34 10° 356° (N) 1,556 6.2 -11.2°
Sets 18:41:36 0° 352° (N) 2,427 7.3 -11.5°
